7QYAJ FWKI-FWKA

Flight info

Callsign 7QYAJ
Flight time N/A
Altitude 7500
Route DVL DCT VMZ DCT VKA
Aircraft C172/L-SDFG/C

Departure

Time 2026-04-16 08:30
Airport Kamuzu International Airport (FWKI)

Arrival

Time N/A
Airport Karonga Airport (FWKA)
Time Latitude Longitude Altitude Speed Heading
2026-04-16 08:14 -13.78781 33.78412 4025 ft 0 kts 127°
2026-04-16 08:16 -13.78783 33.78414 4025 ft 0 kts 151°
2026-04-16 08:16 -13.78784 33.78414 4025 ft 0 kts 163°
2026-04-16 08:17 -13.78788 33.78413 4025 ft 0 kts 213°
2026-04-16 08:17 -13.78786 33.78402 4025 ft 7 kts 313°
2026-04-16 08:17 -13.78753 33.78328 4025 ft 14 kts 248°
2026-04-16 08:18 -13.78810 33.78246 4025 ft 15 kts 259°
2026-04-16 08:19 -13.78291 33.77597 4025 ft 15 kts 304°
2026-04-16 08:20 -13.78228 33.77516 4025 ft 14 kts 309°
2026-04-16 08:20 -13.78169 33.77442 4025 ft 13 kts 311°
2026-04-16 08:20 -13.78113 33.77375 4025 ft 12 kts 311°
2026-04-16 08:20 -13.78061 33.77313 4025 ft 11 kts 311°
2026-04-16 08:21 -13.78014 33.77257 4025 ft 10 kts 311°
2026-04-16 08:21 -13.77972 33.77209 4025 ft 9 kts 311°
2026-04-16 08:21 -13.77935 33.77164 4025 ft 8 kts 311°
2026-04-16 08:21 -13.77900 33.77123 4025 ft 7 kts 311°
2026-04-16 08:22 -13.77869 33.77086 4025 ft 6 kts 311°
2026-04-16 08:22 -13.77843 33.77055 4025 ft 5 kts 311°
2026-04-16 08:22 -13.77822 33.77027 4025 ft 5 kts 288°
2026-04-16 08:22 -13.77822 33.76998 4025 ft 3 kts 260°
2026-04-16 08:23 -13.77823 33.76978 4025 ft 2 kts 267°
2026-04-16 08:23 -13.77823 33.76976 4025 ft 0 kts 267°
2026-04-16 08:23 -13.77823 33.76973 4025 ft 2 kts 267°
2026-04-16 08:24 -13.77830 33.76932 4026 ft 9 kts 237°
2026-04-16 08:24 -13.77846 33.76913 4026 ft 0 kts 225°
2026-04-16 08:27 -13.77847 33.76912 4026 ft 2 kts 225°
2026-04-16 08:27 -13.77887 33.76883 4027 ft 12 kts 205°
2026-04-16 08:27 -13.77996 33.76953 4025 ft 31 kts 126°
2026-04-16 08:28 -13.78193 33.77187 4024 ft 56 kts 127°
2026-04-16 08:28 -13.78476 33.77535 4042 ft 66 kts 130°
2026-04-16 08:28 -13.78774 33.77902 4076 ft 71 kts 130°
2026-04-16 08:28 -13.79118 33.78321 4090 ft 82 kts 130°
2026-04-16 08:29 -13.79504 33.78807 4152 ft 88 kts 129°
2026-04-16 08:29 -13.79851 33.79242 4359 ft 70 kts 130°
2026-04-16 08:29 -13.80161 33.79661 4402 ft 78 kts 129°
2026-04-16 08:29 -13.80509 33.80111 4492 ft 81 kts 131°
2026-04-16 08:30 -13.80922 33.80634 4420 ft 95 kts 133°
2026-04-16 08:30 -13.81128 33.81102 4708 ft 69 kts 57°
2026-04-16 08:30 -13.80834 33.81407 4791 ft 59 kts 26°
2026-04-16 08:30 -13.80419 33.81620 4797 ft 80 kts 14°
2026-04-16 08:31 -13.79845 33.81701 4717 ft 97 kts
2026-04-16 08:31 -13.79164 33.81720 4850 ft 97 kts
2026-04-16 08:31 -13.78498 33.81641 4968 ft 95 kts 358°
2026-04-16 08:31 -13.77856 33.81557 5086 ft 92 kts
2026-04-16 08:32 -13.77230 33.81513 5203 ft 87 kts 13°
2026-04-16 08:32 -13.76636 33.81550 5316 ft 84 kts
2026-04-16 08:32 -13.76065 33.81579 5434 ft 80 kts 15°
2026-04-16 08:32 -13.75515 33.81631 5555 ft 79 kts 14°
2026-04-16 08:33 -13.74972 33.81691 5669 ft 78 kts 13°
2026-04-16 08:33 -13.74430 33.81757 5798 ft 79 kts 16°
2026-04-16 08:33 -13.73895 33.81825 5936 ft 78 kts 15°
2026-04-16 08:33 -13.73371 33.81894 6079 ft 74 kts 17°
2026-04-16 08:34 -13.72880 33.81961 6231 ft 69 kts 18°
2026-04-16 08:34 -13.72383 33.82033 6300 ft 74 kts 16°
2026-04-16 08:34 -13.71865 33.82107 6372 ft 76 kts 15°
2026-04-16 08:34 -13.71344 33.82182 6444 ft 75 kts 16°
2026-04-16 08:35 -13.70817 33.82259 6523 ft 79 kts 14°
2026-04-16 08:35 -13.70251 33.82341 6592 ft 85 kts 17°
2026-04-16 08:35 -13.69655 33.82427 6663 ft 89 kts 17°
2026-04-16 08:35 -13.69030 33.82517 6737 ft 93 kts 16°
2026-04-16 08:36 -13.68382 33.82610 6823 ft 92 kts 16°
2026-04-16 08:36 -13.67756 33.82699 6932 ft 90 kts 16°
2026-04-16 08:36 -13.67141 33.82787 7050 ft 89 kts 15°
2026-04-16 08:36 -13.66531 33.82876 7168 ft 88 kts 19°
2026-04-16 08:37 -13.65937 33.82962 7281 ft 86 kts 17°
2026-04-16 08:37 -13.65342 33.83047 7398 ft 85 kts 16°
2026-04-16 08:37 -13.64749 33.83133 7525 ft 88 kts 18°
2026-04-16 08:37 -13.64132 33.83223 7639 ft 89 kts 17°
2026-04-16 08:38 -13.63499 33.83317 7641 ft 101 kts 16°
2026-04-16 08:38 -13.62767 33.83427 7537 ft 109 kts 15°
2026-04-16 08:38 -13.62000 33.83538 7421 ft 113 kts 14°
2026-04-16 08:38 -13.61215 33.83651 7312 ft 115 kts 14°
2026-04-16 08:39 -13.60419 33.83765 7318 ft 108 kts 12°
2026-04-16 08:39 -13.59758 33.83854 7443 ft 93 kts 19°
2026-04-16 08:39 -13.59111 33.83950 7433 ft 94 kts 18°
2026-04-16 08:39 -13.58475 33.84042 7447 ft 91 kts 17°
2026-04-16 08:40 -13.57849 33.84133 7445 ft 92 kts 18°
2026-04-16 08:40 -13.57200 33.84226 7443 ft 95 kts 16°
2026-04-16 08:40 -13.56543 33.84321 7440 ft 95 kts 18°
2026-04-16 08:40 -13.55908 33.84412 7440 ft 89 kts 15°
2026-04-16 08:41 -13.55306 33.84499 7439 ft 89 kts 13°
2026-04-16 08:41 -13.54693 33.84588 7439 ft 90 kts 15°
2026-04-16 08:41 -13.54085 33.84675 7437 ft 88 kts 16°
2026-04-16 08:41 -13.53490 33.84761 7437 ft 86 kts 14°
2026-04-16 08:42 -13.52909 33.84844 7436 ft 80 kts 15°
2026-04-16 08:42 -13.52388 33.84916 7438 ft 72 kts 15°
2026-04-16 08:42 -13.51883 33.84991 7441 ft 75 kts 15°
2026-04-16 08:42 -13.51354 33.85069 7432 ft 76 kts 13°
2026-04-16 08:43 -13.50861 33.85137 7434 ft 69 kts 21°
2026-04-16 08:43 -13.50398 33.85203 7443 ft 66 kts 17°
2026-04-16 08:43 -13.49947 33.85268 7438 ft 62 kts 14°
2026-04-16 08:43 -13.49540 33.85327 7441 ft 56 kts 20°
2026-04-16 08:44 -13.49188 33.85388 7294 ft 31 kts 57°
2026-04-16 08:44 -13.49159 33.85084 5048 ft 89 kts 200°
2026-04-16 08:44 -13.49396 33.84704 4405 ft 128 kts 237°
2026-04-16 08:44 -13.49466 33.84279 4291 ft 0 kts 17°